Location: Antioch Church
(34.9543°N, 88.5145°W)
Time: 22:36:47
(UTC+00:00)

STARLINK 1023 - Pass Details

Date: 11 December 2019
Orbit: 345 x 354 km, 53.0° (Epoch: 22 January)

Event Time Altitude Azimuth Distance (km) Brightness Sun altitude
Exits shadow 11:15:30 28° 19° (NNE) 710 4.2 -19.1°
Maximum altitude 11:15:58 30° 39° (NE) 678 4.3 -19.0°
Drops below altitude 10° 11:18:38 10° 103° (ESE) 1,324 6.9 -18.5°
Sets 11:20:46 0° 115° (ESE) 2,157 8.3 -18.1°
